Temperature
20 20 20 20 19 19 19 19 19 19 19 18 18 18 18 18 18 18 18 18 18 18 18 18 18 18 18 18 18 18 17 17 17 17 17 17 17 17 17 17 17 17 17
20 20 20 19 19 19 19 19 19 18 18 18 18 18 18 18 18 18 18 17 18 18 17 17 17 17 17 17 17 17 17 17 17 17 17 17 17 17 17 17 16 16 16
20 20 19 19 19 19 19 19 19 18 18 18 18 18 18 17 17 17 17 17 17 17 17 17 17 17 17 17 17 17 17 17 17 17 17 17 17 17 16 16 16 16 16
20 20 19 19 19 19 19 18 18 18 18 18 18 17 17 17 17 17 17 17 17 17 17 17 17 17 17 17 16 16 17 17 16 16 16 17 16 16 16 16 16 16 16
20 20 19 19 19 19 18 18 18 18 18 18 17 17 17 17 17 17 17 17 17 17 17 16 16 16 16 16 16 16 16 16 16 16 16 16 16 16 16 16 15 16 16
20 19 19 19 18 18 18 18 18 18 18 17 17 17 17 17 17 17 17 17 16 16 16 16 16 16 16 16 16 16 16 16 16 16 16 16 16 16 15 15 15 15 15
19 19 19 18 18 18 18 18 18 17 17 17 17 17 17 17 17 17 16 16 16 16 16 16 16 16 16 16 16 16 16 15 16 15 15 15 15 15 15 15 15 15 15
19 19 18 18 18 18 17 17 17 17 17 16 17 16 16 16 16 16 16 16 16 16 16 15 15 15 15 15 15 15 15 15 15 15 15 15 15 15 15 15 14 15 15
18 18 18 18 18 17 17 17 16 16 16 16 16 16 16 16 16 16 16 16 15 15 15 15 15 15 15 15 15 15 15 15 15 15 15 15 15 15 14 14 14 14 14
18 18 17 17 17 17 17 16 16 16 16 16 16 16 16 16 16 16 16 15 15 15 15 15 15 15 15 15 15 14 14 15 14 14 15 15 15 14 14 14 14 14 14
17 17 17 17 17 17 16 16 16 16 16 15 15 16 16 15 15 15 15 15 15 15 15 15 15 15 15 15 14 14 14 14 14 14 14 14 14 14 14 14 14 14 14
16 16 16 16 16 16 16 16 16 16 15 15 15 15 15 15 15 15 15 15 14 14 14 14 14 14 14 14 14 14 14 14 14 14 14 14 14 14 14 14 14 14 14
16 16 16 16 16 15 15 15 15 15 15 15 15 15 15 15 15 15 14 14 14 14 14 14 14 14 14 14 14 14 13 13 13 13 13 13 14 14 14 14 14 14 14
16 16 16 15 15 15 15 15 15 15 15 15 14 15 14 14 14 14 14 14 14 13 13 14 14 14 14 13 13 14 13 13 13 13 13 13 13 13 13 13 13 13 13
15 15 15 15 15 15 15 15 15 15 14 14 14 14 14 14 14 14 14 14 14 13 13 13 13 13 13 13 13 13 13 13 13 13 13 13 13 13 13 13 13 13 12
15 15 15 15 15 15 15 15 15 14 14 14 14 14 14 14 14 14 14 13 13 13 13 13 13 13 13 13 13 13 13 13 12 12 12 12 12 12 12 12 12 12 12
14 14 14 14 15 15 15 14 14 14 14 14 14 14 14 14 14 13 13 13 13 13 13 13 12 12 12 12 12 12 12 12 12 12 12 12 12 11 12 12 12 12 12
14 14 14 14 14 14 14 14 14 14 14 14 14 13 13 13 13 13 13 13 13 12 12 12 12 12 12 12 12 12 11 11 11 11 11 11 11 11 11 11 11 11 11
14 14 14 14 14 14 14 14 14 13 13 13 13 13 13 13 13 12 12 12 12 12 11 11 11 11 11 11 11 11 11 11 11 10 10 10 10 10 10 10 10 10 11
14 14 14 14 14 14 13 13 13 13 13 13 13 13 13 12 12 12 12 12 11 11 11 11 11 10 10 10 10 10 10 10 10 9 9 9 9 9 9 9 10 10 10
13 13 13 13 13 13 13 13 13 13 12 12 12 12 12 12 12 12 11 11 11 11 10 10 10 10 10 9 9 9 9 9 9 9 8 9 9 8 9 9 9 9 9
13 13 13 13 13 13 13 13 12 12 12 12 12 12 11 11 11 11 11 10 10 10 10 9 9 9 9 9 9 9 8 8 8 8 8 8 8 8 8 8 8 8 9
13 13 13 13 13 13 12 12 12 12 12 12 12 11 11 11 11 10 10 10 10 9 9 9 9 9 9 8 8 8 8 8 8 8 8 8 8 8 8 8 8 8 8
12 12 12 12 12 12 12 12 12 12 12 11 11 11 11 10 10 10 9 9 9 9 8 8 8 8 8 8 8 7 7 7 7 7 7 7 7 7 7 7 7 8 8
12 12 12 12 12 12 12 11 11 11 11 11 11 10 10 10 10 9 9 9 8 8 8 8 8 8 8 7 7 7 7 7 7 7 7 7 7 6 6 7 7 7 7
12 12 12 12 12 11 11 11 11 11 11 10 10 10 10 9 9 9 8 8 8 8 8 8 7 7 7 7 7 7 7 7 6 7 6 6 6 6 6 6 6 6 6
Wind_Speed
4 3 2 3 3 3 2 2 2 2 2 2 2 2 3 3 3 3 3 2 3 2 3 2 1 1 2 3 3 2 2 2 2 2 1 1 0 1 2 4 6 7 9
4 3 2 2 2 2 3 2 2 2 2 3 3 3 3 3 3 3 4 3 3 3 3 2 3 2 2 2 3 3 2 2 2 3 2 2 2 2 3 4 4 6 7
5 4 3 2 2 2 2 2 2 2 2 2 2 3 3 3 3 3 4 3 3 3 2 2 3 3 3 3 3 3 3 3 2 3 4 3 2 2 2 4 4 3 5
3 3 2 2 1 1 1 1 1 2 2 2 3 3 3 3 3 3 3 3 3 3 3 2 2 2 3 3 4 3 3 3 3 3 3 3 2 2 2 3 4 3 4
2 1 1 1 1 1 1 1 1 2 2 2 3 2 3 3 2 2 3 4 2 3 3 2 2 2 2 2 3 2 3 3 3 3 3 3 2 1 2 2 3 3 4
2 1 1 1 1 1 1 1 1 2 2 2 2 2 2 3 1 1 2 3 3 3 3 3 3 3 3 3 4 4 4 4 4 3 3 3 3 2 2 3 3 3 4
1 0 1 1 2 2 2 1 2 2 2 2 2 2 2 2 2 2 3 3 4 4 3 3 4 3 2 3 4 5 6 7 7 5 5 4 4 3 3 4 4 4 5
1 0 0 0 1 1 1 1 1 1 1 2 3 3 2 2 2 3 4 4 4 4 3 3 3 2 3 2 4 4 5 5 6 6 5 5 5 3 4 5 6 5 5
1 0 1 1 1 1 1 1 1 1 2 2 3 3 2 2 3 5 4 4 4 4 4 3 3 2 2 2 3 4 4 5 6 7 7 7 7 6 5 4 4 5 6
1 2 2 2 2 1 1 1 2 2 2 2 2 3 3 3 4 5 4 3 4 4 3 3 2 2 2 2 2 4 5 5 5 5 5 7 8 8 9 7 6 5 5
2 2 2 2 2 1 1 1 1 2 2 2 3 3 2 2 2 3 3 3 3 3 3 2 1 2 3 4 5 5 6 6 6 6 5 5 6 6 6 6 6 6 6
2 2 2 2 2 2 1 1 1 1 2 2 3 2 1 1 1 3 4 5 4 3 3 2 1 3 5 7 6 7 7 6 5 5 5 5 4 4 5 5 7 7 7
2 2 2 1 1 1 0 1 2 2 2 2 1 2 2 1 1 1 4 5 6 4 4 5 5 5 6 6 8 8 6 4 5 5 6 5 4 4 4 4 4 5 7
2 2 1 0 0 1 1 1 1 2 2 2 2 2 2 1 2 2 2 3 4 4 5 6 7 7 7 7 5 5 5 5 5 5 5 5 4 4 4 3 4 4 4
3 2 2 1 1 1 1 1 1 1 1 2 2 2 2 2 2 3 2 3 4 4 4 4 3 3 3 3 3 3 3 3 4 5 5 5 5 4 4 3 3 4 4
3 3 3 3 2 1 1 1 4 2 2 2 2 1 0 1 1 2 3 4 5 4 2 3 3 3 4 3 3 4 3 3 3 3 4 4 5 5 5 4 4 4 5
4 3 3 3 3 2 2 1 1 2 2 2 1 0 1 2 3 3 3 5 7 4 2 3 3 3 3 4 3 3 4 3 3 3 4 4 4 5 4 4 4 4 4
4 3 2 3 3 3 2 2 2 2 2 1 1 1 2 3 4 4 3 3 3 2 2 3 3 3 3 4 4 4 4 4 4 4 4 4 4 4 5 4 4 5 5
3 3 3 3 3 3 2 2 2 2 2 2 2 1 2 3 3 3 1 1 3 3 4 4 4 4 4 3 4 4 4 4 4 4 4 4 5 5 5 5 5 5 5
2 2 3 3 3 2 2 2 2 2 2 2 3 2 2 2 2 1 1 0 2 3 3 4 4 4 4 4 4 4 5 5 5 5 5 5 5 5 6 7 6 5 4
3 2 2 3 3 3 3 3 3 3 3 3 3 3 3 3 3 3 3 2 3 3 3 4 4 4 4 4 4 5 5 4 5 5 6 6 6 7 6 6 7 6 5
3 3 2 2 3 2 3 2 2 2 3 3 2 2 2 2 3 3 3 3 3 3 4 4 5 4 4 4 5 5 4 4 5 6 6 6 6 7 6 6 6 6 5
4 3 3 2 2 2 2 3 2 3 3 2 2 2 2 2 3 3 3 4 4 4 4 4 5 5 4 4 4 4 4 5 5 6 6 7 6 7 7 6 7 7 6
4 4 3 3 3 3 3 2 2 3 3 3 3 3 2 2 3 3 3 4 4 4 3 4 4 5 5 4 4 4 4 5 6 6 7 7 7 6 6 6 6 6 6
4 4 3 3 3 3 3 3 3 3 3 3 3 3 3 3 3 4 3 3 4 4 5 4 3 4 5 5 5 5 5 6 6 7 7 6 7 7 6 6 6 6 6
4 4 4 3 3 3 3 3 3 3 3 3 3 3 3 3 3 3 4 4 5 4 4 4 5 5 5 4 5 5 6 7 8 8 7 6 7 6 7 6 7 6 7
Wind_Direction
169 178 181 185 197 194 216 227 228 241 241 244 242 246 226 221 229 236 246 248 243 250 267 258 260 291 320 312 310 300 282 283 279 293 299 298 221 159 157 193 193 191 201
167 158 165 165 183 206 221 224 229 229 230 227 228 233 241 237 237 240 253 253 255 249 258 274 282 269 267 281 289 288 290 278 261 276 286 272 248 218 190 228 224 213 205
162 165 169 172 182 215 240 233 232 233 242 240 234 232 241 248 249 251 255 254 263 268 258 253 265 273 271 272 270 277 286 293 274 262 261 247 241 232 219 249 255 249 232
146 163 154 173 187 216 246 236 223 229 235 239 248 245 251 253 253 258 261 255 253 264 262 253 256 259 265 274 269 270 278 294 287 275 276 267 248 228 227 249 259 249 256
101 107 123 152 182 212 227 244 246 248 249 237 247 251 253 248 258 264 263 258 253 259 262 254 239 228 229 257 275 284 288 282 280 274 272 284 272 266 254 265 269 263 253
84 86 115 156 194 227 232 237 243 243 248 242 248 259 269 274 295 272 262 277 271 265 273 272 245 212 218 232 248 246 241 255 266 271 271 273 269 266 266 271 277 279 273
106 108 152 189 204 227 239 216 234 242 253 262 258 247 249 279 275 268 270 274 273 268 272 273 275 268 230 255 249 242 241 240 236 248 267 275 271 262 269 276 277 280 274
119 130 268 231 237 251 241 243 258 279 278 270 266 259 251 266 244 248 257 256 271 272 274 272 267 293 294 304 286 271 258 253 246 239 250 267 277 277 263 261 264 265 264
34 350 327 314 307 299 288 299 294 278 277 270 269 266 259 259 245 244 247 250 254 258 254 260 252 251 265 300 290 286 282 279 266 256 243 246 253 260 263 274 272 270 272
14 19 13 4 353 323 323 327 317 295 273 270 268 271 263 253 237 236 239 253 259 265 259 244 232 223 225 248 264 278 278 283 292 289 271 253 248 245 239 235 246 258 270
27 35 29 20 4 358 18 18 323 291 284 277 266 257 262 256 212 213 219 259 283 287 279 271 253 206 235 252 252 259 267 280 284 278 266 255 244 241 232 225 229 238 250
26 25 19 11 341 12 30 335 304 285 273 271 274 274 269 246 206 223 223 242 274 291 299 301 272 242 257 259 256 262 273 284 280 278 276 269 257 250 245 233 228 230 232
29 20 13 9 356 333 258 276 279 280 286 302 309 322 329 344 353 262 247 258 266 268 292 304 296 272 275 260 250 256 262 263 270 275 276 278 275 268 260 248 235 232 233
27 13 7 2 304 321 293 285 308 336 327 321 325 324 324 343 3 338 291 280 276 272 285 287 276 260 258 262 265 254 243 250 258 267 276 279 282 280 270 258 256 252 251
22 359 342 336 327 348 29 348 321 12 329 308 318 328 319 312 322 298 277 271 276 278 284 280 281 285 276 271 265 256 253 253 260 271 278 285 286 281 278 273 266 262 260
12 0 347 343 353 350 35 41 37 40 58 55 50 59 345 50 339 343 318 306 297 283 266 276 282 283 285 290 292 285 273 269 273 280 280 282 287 288 287 284 280 268 265
349 346 331 333 340 343 351 9 19 27 35 40 43 37 296 301 310 327 334 329 319 310 262 275 291 300 305 306 305 306 305 305 298 289 285 288 292 296 298 295 289 283 278
329 328 325 328 334 336 344 343 346 2 7 352 310 261 264 283 295 295 310 351 331 330 302 302 305 309 316 322 323 324 323 322 328 321 313 312 305 300 301 300 293 288 286
326 330 333 326 320 325 341 338 346 1 1 353 343 320 282 281 289 294 317 334 326 339 340 339 338 337 339 341 336 334 333 331 331 325 324 323 314 306 299 294 290 288 279
321 324 309 307 312 328 328 331 348 358 2 355 346 352 9 349 324 341 45 322 330 335 337 338 340 340 346 351 346 343 341 340 340 334 330 326 319 313 306 299 296 293 281
321 329 301 301 322 331 335 349 352 347 343 349 0 17 14 348 349 358 4 1 348 341 343 342 342 343 343 338 334 332 336 337 334 327 323 319 316 310 302 298 295 292 288
323 320 313 312 326 335 342 335 328 326 329 338 343 5 16 341 345 356 357 356 355 355 353 346 341 344 344 342 340 335 333 333 331 326 322 318 313 307 304 300 298 298 295
310 310 319 324 324 322 302 310 319 320 326 338 348 1 355 340 349 2 357 355 1 356 347 339 335 337 343 343 347 355 354 344 332 324 318 312 311 307 305 300 298 300 299
309 313 327 341 332 314 316 327 333 341 349 350 351 349 346 350 352 357 352 356 352 342 339 335 330 332 341 347 354 6 17 354 340 333 327 320 312 308 308 306 303 301 300
315 323 326 327 329 333 336 338 337 342 346 350 351 353 356 356 354 353 357 359 346 338 336 333 330 340 350 357 3 7 3 351 346 340 322 314 313 311 308 307 305 304 301
309 311 313 318 324 322 315 318 328 337 340 338 342 347 345 342 345 351 352 349 342 336 333 340 348 355 355 358 2 7 356 341 336 336 326 312 309 315 317 312 309 307 303
Height
1509 1510 1511 1511 1512 1512 1512 1513 1513 1513 1514 1514 1515 1515 1515 1515 1516 1516 1516 1516 1516 1516 1517 1517 1517 1517 1517 1517 1517 1517 1517 1517 1517 1516 1517 1516 1516 1515 1514 1514 1514 1513 1513
1507 1508 1509 1509 1510 1510 1510 1510 1511 1511 1511 1511 1511 1512 1512 1513 1513 1513 1514 1514 1514 1514 1514 1514 1514 1514 1514 1514 1514 1514 1514 1514 1515 1514 1514 1514 1513 1513 1512 1512 1511 1511 1511
1506 1506 1507 1507 1507 1507 1508 1508 1508 1508 1508 1509 1509 1509 1509 1510 1510 1511 1511 1511 1511 1511 1512 1511 1511 1512 1511 1512 1511 1511 1511 1512 1512 1511 1510 1510 1510 1510 1509 1509 1509 1509 1508
1505 1505 1505 1505 1505 1505 1505 1505 1505 1505 1505 1505 1506 1506 1507 1507 1508 1508 1508 1508 1508 1508 1509 1509 1508 1508 1509 1509 1509 1508 1508 1508 1508 1508 1508 1507 1507 1507 1507 1506 1506 1506 1506
1503 1503 1503 1503 1503 1503 1503 1502 1502 1502 1503 1503 1503 1503 1504 1504 1505 1505 1506 1506 1506 1506 1506 1506 1505 1505 1505 1506 1505 1505 1505 1505 1505 1505 1505 1504 1504 1504 1503 1503 1503 1502 1502
1501 1501 1501 1501 1501 1501 1500 1500 1500 1500 1500 1501 1501 1501 1501 1502 1502 1503 1503 1503 1503 1503 1503 1503 1503 1502 1502 1502 1502 1502 1502 1502 1501 1501 1501 1501 1501 1501 1501 1500 1500 1499 1498
1499 1500 1500 1500 1499 1499 1499 1498 1498 1498 1498 1498 1498 1498 1498 1499 1499 1499 1500 1500 1500 1500 1500 1499 1500 1499 1499 1498 1498 1498 1498 1498 1498 1498 1498 1497 1498 1497 1497 1497 1496 1495 1495
1498 1498 1498 1498 1498 1497 1497 1497 1496 1496 1496 1496 1496 1496 1496 1496 1496 1496 1496 1496 1496 1496 1496 1496 1496 1495 1496 1495 1495 1495 1494 1494 1494 1494 1494 1494 1494 1494 1494 1493 1492 1491 1491
1496 1496 1496 1496 1496 1495 1495 1495 1494 1494 1494 1494 1494 1494 1493 1493 1493 1493 1493 1493 1493 1493 1493 1493 1493 1492 1492 1492 1492 1491 1491 1491 1491 1490 1490 1490 1490 1490 1489 1489 1488 1488 1486
1494 1494 1494 1494 1494 1493 1493 1493 1492 1492 1492 1491 1491 1491 1491 1491 1491 1491 1490 1490 1490 1490 1490 1490 1490 1489 1489 1489 1488 1488 1487 1487 1487 1486 1485 1485 1485 1484 1484 1484 1483 1483 1482
1493 1492 1492 1492 1492 1492 1491 1491 1491 1490 1490 1489 1489 1489 1489 1489 1488 1488 1488 1487 1487 1487 1487 1486 1486 1486 1485 1485 1485 1484 1484 1483 1483 1482 1481 1480 1480 1479 1479 1479 1479 1478 1478
1491 1491 1491 1491 1491 1491 1490 1489 1489 1488 1488 1488 1487 1486 1486 1486 1485 1485 1485 1485 1484 1484 1484 1483 1483 1483 1482 1481 1481 1480 1480 1479 1479 1478 1477 1476 1476 1475 1475 1474 1474 1473 1473
1490 1489 1489 1489 1489 1489 1489 1488 1487 1487 1487 1486 1485 1485 1484 1484 1483 1482 1482 1482 1481 1481 1481 1480 1480 1479 1478 1477 1477 1477 1476 1475 1475 1474 1473 1473 1472 1472 1471 1470 1469 1469 1468
1489 1489 1488 1488 1488 1488 1487 1487 1486 1485 1485 1485 1484 1483 1482 1482 1480 1479 1479 1479 1478 1478 1477 1477 1477 1476 1475 1474 1474 1473 1472 1472 1471 1470 1469 1469 1468 1468 1467 1466 1465 1464 1463
1488 1488 1488 1488 1487 1487 1486 1486 1485 1484 1484 1483 1482 1480 1480 1479 1479 1477 1476 1476 1476 1475 1474 1474 1473 1473 1472 1471 1470 1470 1469 1468 1467 1466 1465 1465 1464 1463 1462 1461 1460 1459 1459
1488 1488 1488 1488 1487 1486 1485 1484 1484 1483 1482 1481 1480 1479 1478 1478 1476 1475 1475 1475 1474 1473 1472 1471 1471 1470 1470 1468 1468 1467 1466 1465 1464 1463 1462 1461 1460 1459 1458 1457 1456 1455 1454
1488 1487 1487 1487 1486 1485 1485 1483 1482 1481 1480 1479 1479 1478 1477 1475 1474 1473 1473 1472 1472 1471 1470 1469 1469 1469 1467 1466 1465 1464 1463 1462 1461 1459 1458 1457 1456 1454 1453 1452 1451 1450 1449
1487 1487 1487 1486 1485 1484 1483 1483 1481 1480 1479 1477 1477 1476 1475 1473 1472 1471 1470 1469 1469 1469 1468 1467 1467 1466 1465 1464 1462 1461 1459 1458 1457 1455 1454 1453 1451 1450 1449 1448 1446 1446 1445
1487 1486 1485 1485 1484 1483 1482 1482 1481 1479 1478 1477 1475 1474 1473 1472 1471 1470 1468 1468 1467 1466 1466 1465 1464 1463 1462 1460 1459 1458 1456 1455 1453 1452 1450 1449 1447 1446 1445 1443 1442 1441 1441
1485 1485 1484 1483 1483 1482 1482 1481 1480 1478 1477 1476 1474 1473 1472 1471 1469 1468 1467 1466 1466 1465 1464 1463 1462 1461 1459 1457 1456 1455 1453 1452 1451 1449 1447 1446 1444 1442 1441 1439 1438 1437 1436
1485 1484 1483 1482 1482 1481 1480 1479 1478 1477 1476 1475 1474 1472 1471 1470 1469 1467 1466 1465 1464 1463 1462 1460 1459 1458 1456 1455 1453 1452 1451 1449 1448 1446 1444 1442 1440 1439 1437 1435 1434 1433 1432
1484 1483 1482 1481 1480 1479 1479 1478 1477 1476 1475 1474 1473 1472 1470 1469 1468 1466 1465 1464 1463 1461 1460 1458 1457 1456 1454 1453 1451 1449 1447 1446 1444 1442 1441 1439 1437 1435 1433 1432 1430 1429 1428
1483 1482 1481 1480 1479 1478 1477 1477 1476 1475 1474 1473 1472 1471 1469 1468 1467 1466 1464 1463 1461 1460 1458 1456 1455 1453 1451 1450 1448 1447 1444 1443 1441 1439 1437 1435 1433 1431 1430 1429 1427 1426 1424
1481 1480 1479 1478 1477 1476 1476 1475 1475 1474 1473 1472 1471 1470 1469 1467 1466 1464 1463 1462 1460 1458 1456 1455 1453 1451 1449 1447 1445 1443 1441 1440 1438 1436 1434 1432 1430 1428 1426 1425 1423 1422 1421
1480 1479 1478 1477 1476 1475 1474 1474 1473 1472 1471 1471 1470 1468 1467 1466 1464 1463 1462 1460 1458 1456 1454 1453 1451 1448 1446 1444 1442 1440 1439 1437 1435 1433 1431 1429 1426 1424 1423 1421 1420 1418 1417
1479 1478 1477 1476 1474 1473 1473 1473 1472 1471 1470 1469 1468 1467 1466 1464 1463 1461 1460 1458 1456 1454 1452 1450 1448 1446 1444 1441 1439 1437 1435 1434 1431 1429 1427 1425 1423 1421 1419 1418 1416 1415 1413